,,,PA_Meas_PMT16A,,PR_Meas_QMR101_102,,RH_Meas_QMH101,,SR_Meas_QMS101,,TA_Meas_QMH101,,GenWind,,GenWind,
date,time,status,PA,status,PR,status,RH,status,SR,status,TA,status,DirAvg,status,SpdAvg,
2009-11-01, 00:00:04,VALID,1000.21,VALID,0,VALID,90.1287,VALID,0,VALID,21.341,VALID,67,VALID,0,
2009-11-01, 00:01:04,VALID,1000.21,VALID,0,VALID,90.3118,VALID,0,VALID,21.3215,VALID,67,VALID,0,
2009-11-01, 00:02:04,VALID,1000.2,VALID,0,VALID,90.5254,VALID,0,VALID,21.3215,VALID,67,VALID,0,
2009-11-01, 00:03:04,VALID,1000.18,VALID,0,VALID,90.617,VALID,0,VALID,21.302,VALID,67,VALID,0,
2009-11-01, 00:04:04,VALID,1000.16,VALID,0,VALID,90.7009,VALID,0.112286,VALID,21.3231,VALID,67,VALID,0,
2009-11-01, 00:05:04,VALID,1000.15,VALID,0,VALID,90.823,VALID,0,VALID,21.302,VALID,67,VALID,0.228516,
2009-11-01, 00:06:04,VALID,1000.14,VALID,0,VALID,91.0137,VALID,0,VALID,21.3215,VALID,67,VALID,0.403125,
2009-11-01, 00:07:04,VALID,1000.12,VALID,0,VALID,90.9298,VALID,0,VALID,21.3605,VALID,67,VALID,0.426172,
2009-11-01, 00:08:04,VALID,1000.14,VALID,0,VALID,90.6094,VALID,0.112286,VALID,21.3995,VALID,67,VALID,0.288281,
2009-11-01, 00:09:04,VALID,1000.16,VALID,0,VALID,90.4339,VALID,0,VALID,21.3995,VALID,67,VALID,0.114453,
2009-11-01, 00:10:04,VALID,1000.17,VALID,0,VALID,90.3728,VALID,0,VALID,21.4206,VALID,67,VALID,0.0589844,
2009-11-01, 00:11:04,VALID,1000.16,VALID,0,VALID,90.2813,VALID,0,VALID,21.38,VALID,67,VALID,0.198828,
2009-11-01, 00:12:04,VALID,1000.15,VALID,0,VALID,90.4949,VALID,0,VALID,21.38,VALID,67,VALID,0.216406,
2009-11-01, 00:13:04,VALID,1000.15,VALID,0,VALID,90.6857,VALID,0,VALID,21.419,VALID,67,VALID,0.2375,
2009-11-01, 00:14:04,VALID,1000.13,VALID,0,VALID,90.8535,VALID,0,VALID,21.419,VALID,67,VALID,0.0304688,
2009-11-01, 00:15:04,VALID,1000.14,VALID,0,VALID,91.0137,VALID,0,VALID,21.4385,VALID,67,VALID,0.151562,
2009-11-01, 00:16:04,VALID,1000.13,VALID,0,VALID,91.1358,VALID,0,VALID,21.4791,VALID,67,VALID,0.2375,
2009-11-01, 00:17:04,VALID,1000.12,VALID,0,VALID,91.2197,VALID,0,VALID,21.497,VALID,67,VALID,0.199219,
2009-11-01, 00:18:04,VALID,1000.12,VALID,0,VALID,91.1892,VALID,0.112286,VALID,21.536,VALID,67,VALID,0.154687,
2009-11-01, 00:19:04,VALID,1000.13,VALID,0,VALID,91.1587,VALID,0,VALID,21.575,VALID,67,VALID,0.192969,
2009-11-01, 00:20:04,VALID,1000.13,VALID,0,VALID,90.9909,VALID,0,VALID,21.5945,VALID,67,VALID,0.13125,
2009-11-01, 00:21:04,VALID,1000.1,VALID,0,VALID,90.5026,VALID,0,VALID,21.575,VALID,67,VALID,0.137109,
2009-11-01, 00:22:04,VALID,1000.12,VALID,0,VALID,90.35,VALID,0,VALID,21.5555,VALID,67,VALID,0.112891,
2009-11-01, 00:23:04,VALID,1000.08,VALID,0,VALID,90.5178,VALID,0,VALID,21.5555,VALID,67,VALID,0.120703,
2009-11-01, 00:24:04,VALID,1000.09,VALID,0,VALID,90.6094,VALID,0,VALID,21.5555,VALID,67,VALID,0,
2009-11-01, 00:25:04,VALID,1000.06,VALID,0,VALID,90.5865,VALID,0,VALID,21.5555,VALID,67,VALID,0,
2009-11-01, 00:26:04,VALID,1000.07,VALID,0,VALID,90.5941,VALID,0,VALID,21.5555,VALID,67,VALID,0.241016,
2009-11-01, 00:27:04,VALID,1000.09,VALID,0,VALID,90.6246,VALID,0,VALID,21.5555,VALID,67,VALID,0.473047,
2009-11-01, 00:28:04,VALID,1000.07,VALID,0,VALID,90.5636,VALID,0,VALID,21.5555,VALID,67,VALID,0.419141,
2009-11-01, 00:29:04,VALID,1000.07,VALID,0,VALID,90.5636,VALID,0,VALID,21.5571,VALID,67,VALID,0.43125,
2009-11-01, 00:30:04,VALID,1000.11,VALID,0,VALID,90.5636,VALID,0,VALID,21.5571,VALID,62,VALID,0.495703,
2009-11-01, 00:31:04,VALID,1000.1,VALID,0,VALID,90.7772,VALID,0,VALID,21.5165,VALID,58,VALID,0.615234,
2009-11-01, 00:32:04,VALID,1000.12,VALID,0,VALID,90.472,VALID,0,VALID,21.5165,VALID,37,VALID,0.765234,
2009-11-01, 00:33:04,VALID,1000.13,VALID,0,VALID,89.5717,VALID,0,VALID,21.419,VALID,29,VALID,0.766016,
2009-11-01, 00:34:04,VALID,1000.13,VALID,0,VALID,90.4263,VALID,0,VALID,21.38,VALID,32,VALID,0.741797,
2009-11-01, 00:35:04,VALID,1000.12,VALID,0,VALID,90.266,VALID,0,VALID,21.341,VALID,40,VALID,0.874219,
2009-11-01, 00:36:04,VALID,1000.1,VALID,0,VALID,89.938,VALID,0,VALID,21.263,VALID,40,VALID,0.866016,
2009-11-01, 00:37:04,VALID,1000.1,VALID,0,VALID,89.9532,VALID,0,VALID,21.224,VALID,40,VALID,0.829687,
2009-11-01, 00:38:04,VALID,1000.07,VALID,0,VALID,90.3118,VALID,0,VALID,21.185,VALID,40,VALID,0.746875,
2009-11-01, 00:39:04,VALID,1000.07,VALID,0,VALID,89.9456,VALID,0,VALID,21.107,VALID,40,VALID,0.525,
2009-11-01, 00:40:04,VALID,1000.05,VALID,0,VALID,89.9914,VALID,0,VALID,21.0485,VALID,40,VALID,0.385547,
2009-11-01, 00:41:04,VALID,1000.07,VALID,0,VALID,90.3194,VALID,0,VALID,21.0095,VALID,40,VALID,0.421875,
2009-11-01, 00:42:04,VALID,1000.06,VALID,0,VALID,90.8001,VALID,0,VALID,21.0095,VALID,40,VALID,0.405078,
2009-11-01, 00:43:04,VALID,1000.1,VALID,0,VALID,91.3647,VALID,0,VALID,21.029,VALID,40,VALID,0.498828,
2009-11-01, 00:44:04,VALID,1000.09,VALID,0,VALID,91.7004,VALID,0,VALID,21.1086,VALID,35,VALID,0.575781,
2009-11-01, 00:45:04,VALID,1000.12,VALID,0,VALID,91.3342,VALID,0,VALID,21.068,VALID,35,VALID,0.574609,
2009-11-01, 00:46:04,VALID,1000.13,VALID,0,VALID,91.3037,VALID,0,VALID,21.0501,VALID,35,VALID,0.507031,
2009-11-01, 00:47:04,VALID,1000.12,VALID,0,VALID,91.3266,VALID,0,VALID,20.9705,VALID,35,VALID,0.572266,
2009-11-01, 00:48:04,VALID,1000.13,VALID,0,VALID,92.059,VALID,0,VALID,21.0095,VALID,35,VALID,0.646094,
2009-11-01, 00:49:04,VALID,1000.12,VALID,0,VALID,92.2116,VALID,0,VALID,21.0891,VALID,35,VALID,0.6,
2009-11-01, 00:50:04,VALID,1000.13,VALID,0,VALID,92.1353,VALID,0,VALID,21.1281,VALID,35,VALID,0.680859,
2009-11-01, 00:51:04,VALID,1000.12,VALID,0,VALID,92.0819,VALID,0,VALID,21.1671,VALID,35,VALID,0.760938,
2009-11-01, 00:52:04,VALID,1000.13,VALID,0,VALID,91.6928,VALID,0,VALID,21.146,VALID,35,VALID,0.693359,
2009-11-01, 00:53:04,VALID,1000.11,VALID,0,VALID,91.2808,VALID,0,VALID,21.1265,VALID,35,VALID,0.6375,
2009-11-01, 00:54:04,VALID,1000.13,VALID,0,VALID,90.7772,VALID,0,VALID,21.068,VALID,36,VALID,0.655469,
2009-11-01, 00:55:04,VALID,1000.12,VALID,0,VALID,90.3347,VALID,0,VALID,20.9916,VALID,36,VALID,0.541406,
2009-11-01, 00:56:04,VALID,1000.12,VALID,0,VALID,90.6323,VALID,0,VALID,20.9526,VALID,36,VALID,0.525,
2009-11-01, 00:57:04,VALID,1000.11,VALID,0,VALID,91.2274,VALID,0,VALID,20.912,VALID,36,VALID,0.360156,
2009-11-01, 00:58:04,VALID,1000.1,VALID,0,VALID,91.4105,VALID,0,VALID,20.951,VALID,36,VALID,0.363672,
2009-11-01, 00:59:04,VALID,1000.09,VALID,0,VALID,91.4486,VALID,0,VALID,20.9705,VALID,36,VALID,0.346484,
2009-11-01, 01:00:04,VALID,1000.08,VALID,0,VALID,91.3876,VALID,0,VALID,21.0306,VALID,36,VALID,0.0105469,
2009-11-01, 01:01:04,VALID,1000.08,VALID,0,VALID,91.38,VALID,0,VALID,21.0095,VALID,36,VALID,0,
2009-11-01, 01:02:04,VALID,1000.03,VALID,0,VALID,91.2503,VALID,0,VALID,21.0306,VALID,36,VALID,0,
2009-11-01, 01:03:04,VALID,1000.06,VALID,0,VALID,91.3571,VALID,0,VALID,21.0696,VALID,36,VALID,0.148828,
2009-11-01, 01:04:04,VALID,1000.02,VALID,0,VALID,91.3647,VALID,0,VALID,21.068,VALID,36,VALID,0,
2009-11-01, 01:05:04,VALID,1000.02,VALID,0,VALID,91.2274,VALID,0,VALID,21.068,VALID,36,VALID,0,
2009-11-01, 01:06:04,VALID,1000.02,VALID,0,VALID,91.1434,VALID,0,VALID,21.0485,VALID,36,VALID,0,
2009-11-01, 01:07:04,VALID,999.996,VALID,0,VALID,91.1511,VALID,0,VALID,21.0485,VALID,36,VALID,0,
2009-11-01, 01:08:04,VALID,1000.02,VALID,0,VALID,91.2731,VALID,0,VALID,21.029,VALID,36,VALID,0,
2009-11-01, 01:09:04,VALID,1000,VALID,0,VALID,91.2884,VALID,0.112286,VALID,21.029,VALID,36,VALID,0,
2009-11-01, 01:10:04,VALID,1000.02,VALID,0,VALID,91.3342,VALID,0,VALID,21.029,VALID,36,VALID,0,
2009-11-01, 01:11:04,VALID,1000.03,VALID,0,VALID,91.441,VALID,0,VALID,21.029,VALID,36,VALID,0,
2009-11-01, 01:12:04,VALID,999.993,VALID,0,VALID,91.5783,VALID,0,VALID,21.068,VALID,35,VALID,0.160938,
2009-11-01, 01:13:04,VALID,999.996,VALID,0,VALID,91.4105,VALID,0,VALID,21.107,VALID,11,VALID,0.482812,
2009-11-01, 01:14:04,VALID,999.953,VALID,0,VALID,91.3342,VALID,0,VALID,21.107,VALID,1,VALID,0.460938,
2009-11-01, 01:15:04,VALID,999.965,VALID,0,VALID,91.3342,VALID,0,VALID,21.1265,VALID,1,VALID,0.371875,
2009-11-01, 01:16:04,VALID,999.929,VALID,0,VALID,91.3876,VALID,0,VALID,21.1265,VALID,1,VALID,0.109766,
2009-11-01, 01:17:04,VALID,999.899,VALID,0,VALID,91.4486,VALID,0,VALID,21.1655,VALID,1,VALID,0,
2009-11-01, 01:18:04,VALID,999.888,VALID,0,VALID,91.3342,VALID,0.112286,VALID,21.185,VALID,2,VALID,0,
2009-11-01, 01:19:04,VALID,999.877,VALID,0,VALID,91.3037,VALID,0,VALID,21.1866,VALID,2,VALID,0,
2009-11-01, 01:20:04,VALID,999.872,VALID,0,VALID,90.9909,VALID,0,VALID,21.146,VALID,1,VALID,0,
2009-11-01, 01:21:04,VALID,999.855,VALID,0,VALID,90.9222,VALID,0,VALID,21.1476,VALID,1,VALID,0.705078,
2009-11-01, 01:22:04,VALID,999.835,VALID,0,VALID,90.9451,VALID,0,VALID,21.1086,VALID,3,VALID,0.742188,
2009-11-01, 01:23:04,VALID,999.842,VALID,0,VALID,90.8993,VALID,0,VALID,21.1281,VALID,3,VALID,0.717969,
2009-11-01, 01:24:04,VALID,999.836,VALID,0,VALID,90.7849,VALID,0,VALID,21.0891,VALID,3,VALID,0.772266,
2009-11-01, 01:25:04,VALID,999.843,VALID,0,VALID,90.6475,VALID,0,VALID,21.0696,VALID,10,VALID,0.95625,
2009-11-01, 01:26:04,VALID,999.832,VALID,0,VALID,89.8769,VALID,0,VALID,21.0306,VALID,24,VALID,1.23438,
2009-11-01, 01:27:04,VALID,999.83,VALID,0,VALID,89.938,VALID,0,VALID,20.99,VALID,29,VALID,1.08398,
2009-11-01, 01:28:04,VALID,999.83,VALID,0,VALID,90.6017,VALID,0,VALID,21.029,VALID,33,VALID,1.05781,
2009-11-01, 01:29:04,VALID,999.78,VALID,0,VALID,89.7701,VALID,0,VALID,21.0696,VALID,33,VALID,0.902344,
2009-11-01, 01:30:04,VALID,999.763,VALID,0,VALID,89.0377,VALID,0,VALID,21.0696,VALID,37,VALID,0.785937,
2009-11-01, 01:31:04,VALID,999.783,VALID,0,VALID,88.8622,VALID,0,VALID,20.99,VALID,39,VALID,0.475,
2009-11-01, 01:32:04,VALID,999.756,VALID,0,VALID,89.4115,VALID,0,VALID,20.9526,VALID,39,VALID,0.520312,
2009-11-01, 01:33:04,VALID,999.738,VALID,0,VALID,89.9303,VALID,0,VALID,20.9331,VALID,40,VALID,0.485547,
2009-11-01, 01:34:04,VALID,999.766,VALID,0,VALID,89.8998,VALID,0,VALID,20.873,VALID,40,VALID,0.528906,
2009-11-01, 01:35:04,VALID,999.769,VALID,0,VALID,90.411,VALID,0,VALID,20.8941,VALID,43,VALID,0.622656,
2009-11-01, 01:36:04,VALID,999.778,VALID,0,VALID,90.8459,VALID,0,VALID,20.8746,VALID,58,VALID,0.659766,
2009-11-01, 01:37:04,VALID,999.74,VALID,0,VALID,91.38,VALID,0,VALID,20.912,VALID,69,VALID,0.808203,
2009-11-01, 01:38:04,VALID,999.764,VALID,0,VALID,91.3342,VALID,0,VALID,20.9916,VALID,69,VALID,0.757813,
2009-11-01, 01:39:04,VALID,999.74,VALID,0,VALID,90.7009,VALID,0,VALID,20.9705,VALID,73,VALID,0.819531,
2009-11-01, 01:40:04,VALID,999.699,VALID,0,VALID,90.8917,VALID,0,VALID,20.9705,VALID,76,VALID,0.826563,
2009-11-01, 01:41:04,VALID,999.689,VALID,0,VALID,90.4034,VALID,0,VALID,20.99,VALID,76,VALID,0.670703,
2009-11-01, 01:42:04,VALID,999.688,VALID,0,VALID,90.3423,VALID,0,VALID,20.9916,VALID,76,VALID,0.6,
2009-11-01, 01:43:04,VALID,999.669,VALID,0,VALID,90.472,VALID,0,VALID,20.9916,VALID,80,VALID,0.698047,
2009-11-01, 01:44:04,VALID,999.704,VALID,0,VALID,90.762,VALID,0,VALID,21.0111,VALID,83,VALID,0.733984,
2009-11-01, 01:45:04,VALID,999.678,VALID,0,VALID,90.3881,VALID,0,VALID,21.0111,VALID,83,VALID,0.742969,
2009-11-01, 01:46:04,VALID,999.707,VALID,0,VALID,90.7467,VALID,0,VALID,21.0111,VALID,83,VALID,0.876953,
2009-11-01, 01:47:04,VALID,999.705,VALID,0,VALID,90.6475,VALID,0,VALID,21.0095,VALID,83,VALID,0.841406,
2009-11-01, 01:48:04,VALID,999.692,VALID,0,VALID,90.5102,VALID,0,VALID,21.0696,VALID,83,VALID,0.889453,
2009-11-01, 01:49:04,VALID,999.698,VALID,0,VALID,90.1516,VALID,0,VALID,21.1281,VALID,83,VALID,0.863281,
2009-11-01, 01:50:04,VALID,999.684,VALID,0,VALID,89.938,VALID,0,VALID,21.1866,VALID,86,VALID,0.926172,
2009-11-01, 01:51:04,VALID,999.676,VALID,0,VALID,89.793,VALID,0,VALID,21.2435,VALID,88,VALID,0.881641,
2009-11-01, 01:52:04,VALID,999.646,VALID,0,VALID,89.3505,VALID,0,VALID,21.3231,VALID,93,VALID,0.837891,
2009-11-01, 01:53:04,VALID,999.634,VALID,0,VALID,89.1979,VALID,0,VALID,21.3605,VALID,93,VALID,0.755078,
2009-11-01, 01:54:04,VALID,999.627,VALID,0,VALID,88.9614,VALID,0,VALID,21.4206,VALID,93,VALID,0.673828,
2009-11-01, 01:55:04,VALID,999.635,VALID,0,VALID,88.618,VALID,0,VALID,21.3995,VALID,93,VALID,0.542578,
2009-11-01, 01:56:04,VALID,999.691,VALID,0,VALID,88.9537,VALID,0,VALID,21.4206,VALID,93,VALID,0.399609,
2009-11-01, 01:57:04,VALID,999.655,VALID,0,VALID,88.8164,VALID,0,VALID,21.3605,VALID,93,VALID,0.144141,
2009-11-01, 01:58:04,VALID,999.653,VALID,0,VALID,88.8774,VALID,0,VALID,21.341,VALID,93,VALID,0.153125,
2009-11-01, 01:59:04,VALID,999.672,VALID,0,VALID,88.9385,VALID,0,VALID,21.3231,VALID,93,VALID,0.15,
2009-11-01, 02:00:04,VALID,999.63,VALID,0,VALID,88.9614,VALID,0,VALID,21.2841,VALID,93,VALID,0.335156,
2009-11-01, 02:01:04,VALID,999.609,VALID,0,VALID,89.2894,VALID,0,VALID,21.2435,VALID,93,VALID,0.323828,
2009-11-01, 02:02:04,VALID,999.63,VALID,0,VALID,89.6099,VALID,0,VALID,21.2435,VALID,93,VALID,0.421094,
2009-11-01, 02:03:04,VALID,999.602,VALID,0,VALID,89.7243,VALID,0,VALID,21.263,VALID,93,VALID,0.225,
2009-11-01, 02:04:04,VALID,999.578,VALID,0,VALID,89.5794,VALID,0,VALID,21.2841,VALID,93,VALID,0.357812,
2009-11-01, 02:05:04,VALID,999.564,VALID,0,VALID,89.8464,VALID,0,VALID,21.2435,VALID,93,VALID,0.322656,
2009-11-01, 02:06:04,VALID,999.575,VALID,0,VALID,89.9151,VALID,0,VALID,21.2841,VALID,93,VALID,0.440625,
2009-11-01, 02:07:04,VALID,999.572,VALID,0,VALID,89.8617,VALID,0.112286,VALID,21.263,VALID,93,VALID,0.469531,
2009-11-01, 02:08:04,VALID,999.583,VALID,0,VALID,89.8388,VALID,0,VALID,21.2435,VALID,93,VALID,0.494922,
2009-11-01, 02:09:04,VALID,999.561,VALID,0,VALID,89.8006,VALID,0,VALID,21.2451,VALID,40,VALID,0.671094,
2009-11-01, 02:10:04,VALID,999.553,VALID,0,VALID,90.2355,VALID,0,VALID,21.2045,VALID,40,VALID,0.640625,
2009-11-01, 02:11:04,VALID,999.541,VALID,0,VALID,90.0371,VALID,0,VALID,21.2256,VALID,40,VALID,0.786328,
2009-11-01, 02:12:04,VALID,999.52,VALID,0,VALID,90.2889,VALID,0,VALID,21.185,VALID,40,VALID,0.865625,
2009-11-01, 02:13:04,VALID,999.5,VALID,0,VALID,90.411,VALID,0,VALID,21.2045,VALID,40,VALID,0.705078,
2009-11-01, 02:14:04,VALID,999.503,VALID,0,VALID,90.2737,VALID,0,VALID,21.224,VALID,40,VALID,0.788281,
2009-11-01, 02:15:04,VALID,999.519,VALID,0,VALID,90.1592,VALID,0,VALID,21.2451,VALID,40,VALID,0.632031,
2009-11-01, 02:16:04,VALID,999.467,VALID,0,VALID,89.854,VALID,0,VALID,21.2256,VALID,40,VALID,0.483984,
2009-11-01, 02:17:04,VALID,999.5,VALID,0,VALID,89.6023,VALID,0,VALID,21.2061,VALID,40,VALID,0.464453,
2009-11-01, 02:18:04,VALID,999.497,VALID,0,VALID,89.0529,VALID,0,VALID,21.1476,VALID,40,VALID,0.326562,
2009-11-01, 02:19:04,VALID,999.507,VALID,0,VALID,89.236,VALID,0.112286,VALID,21.0485,VALID,40,VALID,0.448438,
2009-11-01, 02:20:04,VALID,999.512,VALID,0,VALID,89.7091,VALID,0,VALID,20.99,VALID,36,VALID,0.696484,
2009-11-01, 02:21:04,VALID,999.518,VALID,0,VALID,89.8083,VALID,0,VALID,20.951,VALID,25,VALID,0.728906,
2009-11-01, 02:22:04,VALID,999.521,VALID,0,VALID,89.9609,VALID,0,VALID,20.9136,VALID,13,VALID,0.558594,
2009-11-01, 02:23:04,VALID,999.536,VALID,0,VALID,90.5102,VALID,0,VALID,20.8941,VALID,11,VALID,0.651563,
2009-11-01, 02:24:04,VALID,999.498,VALID,0,VALID,90.1974,VALID,0,VALID,20.8535,VALID,11,VALID,0.429688,
2009-11-01, 02:25:04,VALID,999.511,VALID,0,VALID,90.1363,VALID,0,VALID,20.8161,VALID,11,VALID,0.330469,
2009-11-01, 02:26:04,VALID,999.512,VALID,0,VALID,90.5941,VALID,0,VALID,20.7755,VALID,11,VALID,0.319141,
2009-11-01, 02:27:05,VALID,999.51,VALID,0,VALID,90.8306,VALID,0,VALID,20.7755,VALID,11,VALID,0.305859,
2009-11-01, 02:28:05,VALID,999.511,VALID,0,VALID,90.9374,VALID,0,VALID,20.795,VALID,11,VALID,0.289063,
2009-11-01, 02:29:05,VALID,999.521,VALID,0,VALID,90.8001,VALID,0,VALID,20.7771,VALID,11,VALID,0.257031,
2009-11-01, 02:30:05,VALID,999.561,VALID,0,VALID,90.9985,VALID,0,VALID,20.7381,VALID,11,VALID,0.353125,
2009-11-01, 02:31:05,VALID,999.555,VALID,0,VALID,91.2274,VALID,0,VALID,20.7381,VALID,11,VALID,0.482031,
2009-11-01, 02:32:05,VALID,999.568,VALID,0,VALID,91.1053,VALID,0,VALID,20.7592,VALID,11,VALID,0.563281,
2009-11-01, 02:33:05,VALID,999.556,VALID,0,VALID,90.8764,VALID,0,VALID,20.7186,VALID,11,VALID,0.470703,
2009-11-01, 02:34:05,VALID,999.559,VALID,0,VALID,91.0137,VALID,0,VALID,20.6991,VALID,11,VALID,0.491797,
2009-11-01, 02:35:05,VALID,999.569,VALID,0,VALID,91.0824,VALID,0,VALID,20.6991,VALID,11,VALID,0.455859,
2009-11-01, 02:36:05,VALID,999.581,VALID,0,VALID,91.0366,VALID,0,VALID,20.6991,VALID,11,VALID,0.395312,
2009-11-01, 02:37:05,VALID,999.563,VALID,0,VALID,90.7849,VALID,0,VALID,20.6796,VALID,11,VALID,0.300781,
2009-11-01, 02:38:05,VALID,999.6,VALID,0,VALID,91.0137,VALID,0,VALID,20.6601,VALID,11,VALID,0.199609,
2009-11-01, 02:39:05,VALID,999.607,VALID,0,VALID,91.0519,VALID,0,VALID,20.6601,VALID,11,VALID,0.258984,
2009-11-01, 02:40:05,VALID,999.607,VALID,0,VALID,91.1892,VALID,0,VALID,20.6601,VALID,11,VALID,0.177734,
2009-11-01, 02:41:05,VALID,999.624,VALID,0,VALID,91.2274,VALID,0,VALID,20.6601,VALID,11,VALID,0.197656,
2009-11-01, 02:42:05,VALID,999.632,VALID,0,VALID,91.4791,VALID,0,VALID,20.6796,VALID,11,VALID,0.171875,
2009-11-01, 02:43:05,VALID,999.628,VALID,0,VALID,91.6623,VALID,0,VALID,20.7186,VALID,11,VALID,0.194922,
2009-11-01, 02:44:05,VALID,999.62,VALID,0,VALID,91.7996,VALID,0,VALID,20.7592,VALID,11,VALID,0.1625,
2009-11-01, 02:45:05,VALID,999.618,VALID,0,VALID,91.8683,VALID,0,VALID,20.7787,VALID,11,VALID,0.255078,
2009-11-01, 02:46:05,VALID,999.675,VALID,0,VALID,91.7614,VALID,0,VALID,20.7966,VALID,11,VALID,0.314063,
2009-11-01, 02:47:05,VALID,999.653,VALID,0,VALID,91.586,VALID,0,VALID,20.7771,VALID,11,VALID,0.499609,
2009-11-01, 02:48:05,VALID,999.651,VALID,0,VALID,91.6699,VALID,0,VALID,20.7771,VALID,11,VALID,0.587891,
2009-11-01, 02:49:05,VALID,999.621,VALID,0,VALID,91.8148,VALID,0,VALID,20.8161,VALID,11,VALID,0.462109,
2009-11-01, 02:50:05,VALID,999.674,VALID,0,VALID,91.8148,VALID,0,VALID,20.8372,VALID,11,VALID,0.394531,
2009-11-01, 02:51:05,VALID,999.651,VALID,0,VALID,91.6012,VALID,0,VALID,20.8161,VALID,11,VALID,0.424609,
2009-11-01, 02:52:05,VALID,999.668,VALID,0,VALID,91.4715,VALID,0,VALID,20.8177,VALID,11,VALID,0.256641,
2009-11-01, 02:53:05,VALID,999.655,VALID,0,VALID,91.5402,VALID,0,VALID,20.8161,VALID,11,VALID,0.170703,
2009-11-01, 02:54:05,VALID,999.657,VALID,0,VALID,91.38,VALID,0,VALID,20.8356,VALID,11,VALID,0.217187,
2009-11-01, 02:55:05,VALID,999.678,VALID,0,VALID,91.3647,VALID,0,VALID,20.8372,VALID,11,VALID,0.331641,
2009-11-01, 02:56:05,VALID,999.652,VALID,0,VALID,91.38,VALID,0,VALID,20.8762,VALID,11,VALID,0.476953,
2009-11-01, 02:57:05,VALID,999.681,VALID,0,VALID,91.2884,VALID,0,VALID,20.9136,VALID,11,VALID,0.502344,
2009-11-01, 02:58:05,VALID,999.664,VALID,0,VALID,91.0671,VALID,0,VALID,20.9932,VALID,34,VALID,0.511328,
2009-11-01, 02:59:05,VALID,999.664,VALID,0,VALID,90.8383,VALID,0,VALID,21.0907,VALID,87,VALID,0.585547,
2009-11-01, 03:00:05,VALID,999.689,VALID,0,VALID,90.5712,VALID,0,VALID,21.1265,VALID,88,VALID,0.411328,
2009-11-01, 03:01:05,VALID,999.703,VALID,0,VALID,90.205,VALID,0,VALID,21.1655,VALID,88,VALID,0.401172,
2009-11-01, 03:02:05,VALID,999.712,VALID,0,VALID,89.8464,VALID,0,VALID,21.1866,VALID,88,VALID,0.232422,
2009-11-01, 03:03:05,VALID,999.725,VALID,0,VALID,89.5107,VALID,0,VALID,21.1265,VALID,88,VALID,0.18125,
2009-11-01, 03:04:05,VALID,999.742,VALID,0,VALID,89.2437,VALID,0,VALID,21.068,VALID,88,VALID,0.232812,
2009-11-01, 03:05:05,VALID,999.722,VALID,0,VALID,89.732,VALID,0,VALID,21.029,VALID,88,VALID,0.247266,
2009-11-01, 03:06:05,VALID,999.75,VALID,0,VALID,89.8006,VALID,0,VALID,21.0501,VALID,88,VALID,0.255469,
2009-11-01, 03:07:05,VALID,999.722,VALID,0,VALID,89.6099,VALID,0,VALID,20.951,VALID,88,VALID,0.319531,
2009-11-01, 03:08:05,VALID,999.752,VALID,0,VALID,89.9151,VALID,0,VALID,20.912,VALID,88,VALID,0.305469,
2009-11-01, 03:09:05,VALID,999.748,VALID,0,VALID,90.1592,VALID,0,VALID,20.8925,VALID,88,VALID,0.278906,
2009-11-01, 03:10:05,VALID,999.794,VALID,0,VALID,90.472,VALID,0,VALID,20.873,VALID,88,VALID,0.182812,
2009-11-01, 03:11:05,VALID,999.777,VALID,0,VALID,90.6475,VALID,0,VALID,20.873,VALID,88,VALID,0.182422,
2009-11-01, 03:12:05,VALID,999.776,VALID,0,VALID,90.8306,VALID,0,VALID,20.873,VALID,88,VALID,0.123047,
2009-11-01, 03:13:05,VALID,999.813,VALID,0,VALID,90.9603,VALID,0,VALID,20.8941,VALID,88,VALID,0,
2009-11-01, 03:14:05,VALID,999.8,VALID,0,VALID,91.2045,VALID,0,VALID,20.9136,VALID,88,VALID,0,
2009-11-01, 03:15:05,VALID,999.803,VALID,0,VALID,91.2731,VALID,0,VALID,20.8941,VALID,88,VALID,0,
2009-11-01, 03:16:05,VALID,999.797,VALID,0,VALID,91.3418,VALID,0,VALID,20.9136,VALID,88,VALID,0,
2009-11-01, 03:17:05,VALID,999.797,VALID,0,VALID,91.3723,VALID,0,VALID,20.8925,VALID,88,VALID,0,
2009-11-01, 03:18:05,VALID,999.796,VALID,0,VALID,91.3342,VALID,0,VALID,20.8941,VALID,88,VALID,0,
2009-11-01, 03:19:05,VALID,999.805,VALID,0,VALID,91.3647,VALID,0,VALID,20.8941,VALID,88,VALID,0.132813,
2009-11-01, 03:20:05,VALID,999.841,VALID,0,VALID,91.3876,VALID,0,VALID,20.873,VALID,88,VALID,0.146094,
2009-11-01, 03:21:05,VALID,999.862,VALID,0,VALID,91.3723,VALID,0,VALID,20.873,VALID,88,VALID,0.127344,
2009-11-01, 03:22:05,VALID,999.873,VALID,0,VALID,91.3113,VALID,0,VALID,20.873,VALID,88,VALID,0.364062,
2009-11-01, 03:23:05,VALID,999.879,VALID,0,VALID,91.2579,VALID,0,VALID,20.873,VALID,88,VALID,0.357031,
2009-11-01, 03:24:05,VALID,999.875,VALID,0,VALID,91.1816,VALID,0,VALID,20.9136,VALID,116,VALID,0.602734,
2009-11-01, 03:25:05,VALID,999.872,VALID,0,VALID,90.9298,VALID,0,VALID,20.9526,VALID,134,VALID,0.734766,
2009-11-01, 03:26:05,VALID,999.901,VALID,0,VALID,90.3728,VALID,0,VALID,21.0111,VALID,134,VALID,0.719141,
2009-11-01, 03:27:05,VALID,999.866,VALID,0,VALID,89.7625,VALID,0,VALID,21.1476,VALID,134,VALID,0.642969,
2009-11-01, 03:28:05,VALID,999.859,VALID,0,VALID,89.03,VALID,0,VALID,21.2451,VALID,134,VALID,0.551172,
2009-11-01, 03:29:05,VALID,999.903,VALID,0,VALID,88.4578,VALID,0,VALID,21.3426,VALID,134,VALID,0.53125,
2009-11-01, 03:30:05,VALID,999.895,VALID,0,VALID,88.0382,VALID,0,VALID,21.4011,VALID,134,VALID,0.477344,
2009-11-01, 03:31:05,VALID,999.913,VALID,0,VALID,87.7254,VALID,0,VALID,21.4596,VALID,157,VALID,0.627344,
2009-11-01, 03:32:05,VALID,999.939,VALID,0,VALID,87.3973,VALID,0,VALID,21.5181,VALID,157,VALID,0.445703,
2009-11-01, 03:33:05,VALID,999.92,VALID,0,VALID,87.2294,VALID,0,VALID,21.5766,VALID,157,VALID,0.431641,
2009-11-01, 03:34:05,VALID,999.956,VALID,0,VALID,86.9395,VALID,0,VALID,21.5961,VALID,157,VALID,0.667578,
2009-11-01, 03:35:05,VALID,999.959,VALID,0,VALID,86.5428,VALID,0,VALID,21.6546,VALID,154,VALID,0.8375,
2009-11-01, 03:36:05,VALID,999.962,VALID,0,VALID,86.1232,VALID,0,VALID,21.692,VALID,147,VALID,0.607813,
2009-11-01, 03:37:05,VALID,999.993,VALID,0,VALID,85.9629,VALID,0,VALID,21.731,VALID,141,VALID,0.616797,
2009-11-01, 03:38:05,VALID,999.982,VALID,0,VALID,85.9782,VALID,0,VALID,21.7521,VALID,117,VALID,0.464063,
2009-11-01, 03:39:05,VALID,1000.02,VALID,0,VALID,85.612,VALID,0,VALID,21.7716,VALID,117,VALID,0.402344,
2009-11-01, 03:40:05,VALID,1000.03,VALID,0,VALID,85.7569,VALID,0,VALID,21.7115,VALID,117,VALID,0.135547,
2009-11-01, 03:41:05,VALID,1000.06,VALID,0,VALID,85.9934,VALID,0,VALID,21.6725,VALID,117,VALID,0,
2009-11-01, 03:42:05,VALID,1000.05,VALID,0,VALID,86.2071,VALID,0,VALID,21.6741,VALID,117,VALID,0,
2009-11-01, 03:43:05,VALID,1000.03,VALID,0,VALID,86.2681,VALID,0,VALID,21.6156,VALID,117,VALID,0,
2009-11-01, 03:44:05,VALID,1000.05,VALID,0,VALID,86.6649,VALID,0,VALID,21.5571,VALID,117,VALID,0,
2009-11-01, 03:45:05,VALID,1000.03,VALID,0,VALID,86.9166,VALID,0,VALID,21.5376,VALID,117,VALID,0,
2009-11-01, 03:46:05,VALID,1000.03,VALID,0,VALID,87.26,VALID,0,VALID,21.4986,VALID,117,VALID,0,
2009-11-01, 03:47:05,VALID,1000.04,VALID,0,VALID,87.466,VALID,0,VALID,21.4791,VALID,117,VALID,0,
2009-11-01, 03:48:05,VALID,1000.07,VALID,0,VALID,87.5728,VALID,0,VALID,21.419,VALID,117,VALID,0,
2009-11-01, 03:49:05,VALID,1000.03,VALID,0,VALID,87.7406,VALID,0,VALID,21.4011,VALID,117,VALID,0,